DAL297 KLAX-KSLC

Flight info

Callsign DAL297
Flight time N/A
Altitude 41000
Route OSHNN1 BEALE Q842 WINEN MLF QWENN6
Aircraft C25C/M-SDE2E3FGHRWXY/LB1

Departure

Time 2026-04-20 23:34
Airport Los Angeles International Airport (KLAX)

Arrival

Time N/A
Airport Salt Lake City International Airport (KSLC)
Time Latitude Longitude Altitude Speed Heading
2026-04-20 23:09 33.94624 -118.40007 110 ft 0 kts 166°
2026-04-20 23:25 33.94627 -118.40008 117 ft 2 kts 166°
2026-04-20 23:25 33.94641 -118.40012 118 ft 1 kts 166°
2026-04-20 23:25 33.94643 -118.40012 118 ft 0 kts 166°
2026-04-20 23:30 33.94642 -118.40012 118 ft 0 kts 163°
2026-04-20 23:30 33.94638 -118.40027 118 ft 12 kts 309°
2026-04-20 23:30 33.94724 -118.40012 119 ft 13 kts 359°
2026-04-20 23:31 33.94739 -118.40012 119 ft 0 kts
2026-04-20 23:31 33.94740 -118.40012 119 ft 0 kts
2026-04-20 23:31 33.94761 -118.40010 119 ft 7 kts
2026-04-20 23:31 33.94823 -118.40008 117 ft 10 kts 340°
2026-04-20 23:32 33.94863 -118.40068 119 ft 9 kts 315°
2026-04-20 23:32 33.94912 -118.40065 119 ft 7 kts 40°
2026-04-20 23:32 33.94925 -118.40009 119 ft 9 kts 81°
2026-04-20 23:32 33.94936 -118.39949 118 ft 12 kts 70°
2026-04-20 23:33 33.94964 -118.39917 119 ft 0 kts 21°
2026-04-20 23:33 33.95025 -118.39915 119 ft 18 kts 335°
2026-04-20 23:34 33.95023 -118.40189 119 ft 69 kts 264°
2026-04-20 23:34 33.94940 -118.41202 199 ft 168 kts 264°
2026-04-20 23:34 33.94796 -118.42847 567 ft 225 kts 264°
2026-04-20 23:34 33.94615 -118.44901 1233 ft 272 kts 264°
2026-04-20 23:35 33.94392 -118.47276 2567 ft 295 kts 264°
2026-04-20 23:35 33.92762 -118.51786 5690 ft 324 kts 222°
2026-04-20 23:35 33.90729 -118.53116 6454 ft 337 kts 196°
2026-04-20 23:36 33.88484 -118.53290 7224 ft 312 kts 173°
2026-04-20 23:36 33.86420 -118.52821 7888 ft 292 kts 169°
2026-04-20 23:36 33.84506 -118.52331 8686 ft 271 kts 168°
2026-04-20 23:36 33.82706 -118.51891 9299 ft 261 kts 169°
2026-04-20 23:37 33.80900 -118.51447 9537 ft 266 kts 169°
2026-04-20 23:37 33.79063 -118.51040 9809 ft 269 kts 170°
2026-04-20 23:37 33.77182 -118.50712 9958 ft 275 kts 173°
2026-04-20 23:37 33.75332 -118.50398 10592 ft 260 kts 173°
2026-04-20 23:38 33.73603 -118.50182 11459 ft 238 kts 178°
2026-04-20 23:38 33.72025 -118.50452 12161 ft 227 kts 196°
2026-04-20 23:38 33.70550 -118.51067 12577 ft 228 kts 202°
2026-04-20 23:38 33.69092 -118.51718 13086 ft 225 kts 189°
2026-04-20 23:39 33.67509 -118.51412 13138 ft 243 kts 149°
2026-04-20 23:39 33.66479 -118.49818 13382 ft 250 kts 110°
2026-04-20 23:39 33.66178 -118.47730 13578 ft 258 kts 90°
2026-04-20 23:39 33.66273 -118.45570 13845 ft 261 kts 86°
2026-04-20 23:40 33.66378 -118.43463 14527 ft 246 kts 84°
2026-04-20 23:40 33.66569 -118.41413 14821 ft 251 kts 83°
2026-04-20 23:40 33.66440 -118.39285 14810 ft 264 kts 111°
2026-04-20 23:40 33.65660 -118.37415 15699 ft 237 kts 120°
2026-04-20 23:41 33.64833 -118.35711 16148 ft 235 kts 121°
2026-04-20 23:41 33.63984 -118.34052 16579 ft 236 kts 122°
2026-04-20 23:41 33.63227 -118.32249 16747 ft 254 kts 105°
2026-04-20 23:41 33.63098 -118.30061 16796 ft 273 kts 84°
2026-04-20 23:42 33.63478 -118.27794 16982 ft 285 kts 74°
2026-04-20 23:42 33.64070 -118.25549 17691 ft 276 kts 71°
2026-04-20 23:42 33.64631 -118.23375 18562 ft 265 kts 73°
2026-04-20 23:42 33.65146 -118.21316 19532 ft 252 kts 73°
2026-04-20 23:43 33.65394 -118.19222 20013 ft 258 kts 84°
2026-04-20 23:43 33.65585 -118.17117 20673 ft 258 kts 76°
2026-04-20 23:43 33.66485 -118.15182 20586 ft 287 kts 45°
2026-04-20 23:43 33.68145 -118.13668 20626 ft 305 kts 31°
2026-04-20 23:44 33.69888 -118.12399 21843 ft 277 kts 30°
2026-04-20 23:44 33.71413 -118.11125 22677 ft 272 kts 37°
2026-04-20 23:44 33.72886 -118.09619 22927 ft 286 kts 42°
2026-04-20 23:44 33.74368 -118.07944 23214 ft 297 kts 44°
2026-04-20 23:45 33.75878 -118.06169 23357 ft 312 kts 45°
2026-04-20 23:45 33.77437 -118.04280 23622 ft 321 kts 45°
2026-04-20 23:45 33.78993 -118.02380 24225 ft 317 kts 45°
2026-04-20 23:45 33.80560 -118.00462 24401 ft 329 kts 46°
2026-04-20 23:46 33.81961 -117.98204 24278 ft 348 kts 65°
2026-04-20 23:46 33.82784 -117.95395 24156 ft 364 kts 68°
2026-04-20 23:46 33.84289 -117.92899 24024 ft 377 kts 46°
2026-04-20 23:46 33.86215 -117.90675 23912 ft 389 kts 42°
2026-04-20 23:47 33.88249 -117.88466 23800 ft 399 kts 41°
2026-04-20 23:47 33.90333 -117.86206 23694 ft 407 kts 42°
2026-04-20 23:47 33.92450 -117.83891 23583 ft 413 kts 42°
2026-04-20 23:47 33.94584 -117.81543 23470 ft 418 kts 42°
2026-04-20 23:48 33.96726 -117.79179 23575 ft 416 kts 42°
2026-04-20 23:48 33.98853 -117.76828 23717 ft 415 kts 42°
2026-04-20 23:48 34.00975 -117.74478 23834 ft 413 kts 42°
2026-04-20 23:48 34.03086 -117.72142 23955 ft 412 kts 42°
2026-04-20 23:49 34.05200 -117.69803 24087 ft 411 kts 42°
2026-04-20 23:49 34.07307 -117.67471 24209 ft 411 kts 42°
2026-04-20 23:49 34.09380 -117.65176 24333 ft 410 kts 42°
2026-04-20 23:49 34.11480 -117.62851 24459 ft 410 kts 42°
2026-04-20 23:50 34.13579 -117.60527 24583 ft 409 kts 42°
2026-04-20 23:50 34.15676 -117.58206 24704 ft 409 kts 42°
2026-04-20 23:50 34.17777 -117.55879 24829 ft 409 kts 42°
2026-04-20 23:50 34.19869 -117.53560 24953 ft 408 kts 42°
2026-04-20 23:51 34.21960 -117.51242 25074 ft 407 kts 42°
2026-04-20 23:51 34.24047 -117.48928 25198 ft 407 kts 42°
2026-04-20 23:51 34.26131 -117.46615 25322 ft 406 kts 42°
2026-04-20 23:51 34.28215 -117.44303 25446 ft 406 kts 42°
2026-04-20 23:52 34.30299 -117.41990 25569 ft 406 kts 42°
2026-04-20 23:52 34.32379 -117.39681 25691 ft 406 kts 42°
2026-04-20 23:52 34.34462 -117.37369 25818 ft 405 kts 42°
2026-04-20 23:52 34.36537 -117.35065 25939 ft 405 kts 42°
2026-04-20 23:53 34.38613 -117.32759 26063 ft 405 kts 42°
2026-04-20 23:53 34.40662 -117.30484 26186 ft 405 kts 42°
2026-04-20 23:53 34.42737 -117.28179 26307 ft 404 kts 42°
2026-04-20 23:53 34.44810 -117.25876 26434 ft 404 kts 42°
2026-04-20 23:54 34.46883 -117.23572 26558 ft 404 kts 42°
2026-04-20 23:54 34.48953 -117.21272 26682 ft 403 kts 42°
2026-04-20 23:54 34.51020 -117.18973 26806 ft 403 kts 42°
2026-04-20 23:54 34.53091 -117.16670 26930 ft 403 kts 42°
2026-04-20 23:55 34.55155 -117.14375 27055 ft 402 kts 42°
2026-04-20 23:55 34.57208 -117.12090 27301 ft 399 kts 42°
2026-04-20 23:55 34.59239 -117.09829 27606 ft 394 kts 42°
2026-04-20 23:55 34.61271 -117.07564 27613 ft 398 kts 42°
2026-04-20 23:56 34.63312 -117.05290 27757 ft 398 kts 42°
2026-04-20 23:56 34.65350 -117.03019 27906 ft 397 kts 42°
2026-04-20 23:56 34.67359 -117.00779 28051 ft 397 kts 42°
2026-04-20 23:56 34.69395 -116.98509 28200 ft 396 kts 42°
2026-04-20 23:57 34.71425 -116.96245 28348 ft 396 kts 42°
2026-04-20 23:57 34.73458 -116.93979 28497 ft 396 kts 42°
2026-04-20 23:57 34.75488 -116.91714 28649 ft 396 kts 42°
2026-04-20 23:57 34.77516 -116.89451 28794 ft 395 kts 42°
2026-04-20 23:58 34.79543 -116.87188 28942 ft 395 kts 42°
2026-04-20 23:58 34.81571 -116.84923 29090 ft 395 kts 42°
2026-04-20 23:58 34.83603 -116.82657 29240 ft 395 kts 42°
2026-04-20 23:58 34.85629 -116.80397 29389 ft 395 kts 42°
2026-04-20 23:59 34.87652 -116.78138 29538 ft 394 kts 42°
2026-04-20 23:59 34.89671 -116.75879 29687 ft 394 kts 42°
2026-04-20 23:59 34.91668 -116.73595 29834 ft 394 kts 44°
2026-04-20 23:59 34.93594 -116.71223 29984 ft 393 kts 46°
2026-04-21 00:00 34.95487 -116.68810 30132 ft 393 kts 46°
2026-04-21 00:00 34.97344 -116.66423 30279 ft 393 kts 46°
2026-04-21 00:00 34.99225 -116.64004 30427 ft 392 kts 46°
2026-04-21 00:00 35.01102 -116.61593 30573 ft 392 kts 46°
2026-04-21 00:01 35.02980 -116.59178 30723 ft 392 kts 46°
2026-04-21 00:01 35.04858 -116.56763 30871 ft 391 kts 46°
2026-04-21 00:01 35.06731 -116.54356 31018 ft 391 kts 46°
2026-04-21 00:01 35.08601 -116.51951 31166 ft 390 kts 46°
2026-04-21 00:02 35.10470 -116.49547 31318 ft 390 kts 46°
2026-04-21 00:02 35.12333 -116.47151 31491 ft 389 kts 46°
2026-04-21 00:02 35.14193 -116.44758 31657 ft 388 kts 46°
2026-04-21 00:02 35.16046 -116.42373 31835 ft 387 kts 46°
2026-04-21 00:03 35.17899 -116.39989 32008 ft 386 kts 46°
2026-04-21 00:03 35.19747 -116.37610 32180 ft 385 kts 46°
2026-04-21 00:03 35.21590 -116.35238 32352 ft 385 kts 46°
2026-04-21 00:03 35.23433 -116.32863 32523 ft 384 kts 46°
2026-04-21 00:04 35.25273 -116.30495 32695 ft 384 kts 46°
2026-04-21 00:04 35.27112 -116.28128 32867 ft 383 kts 46°
2026-04-21 00:04 35.28945 -116.25767 33039 ft 382 kts 46°
2026-04-21 00:04 35.30752 -116.23440 33209 ft 382 kts 46°
2026-04-21 00:05 35.32584 -116.21081 33381 ft 381 kts 46°
2026-04-21 00:05 35.34411 -116.18729 33554 ft 380 kts 46°
2026-04-21 00:05 35.36231 -116.16384 33726 ft 379 kts 46°
2026-04-21 00:05 35.38046 -116.14043 33900 ft 378 kts 46°
2026-04-21 00:06 35.39862 -116.11704 34069 ft 377 kts 46°
2026-04-21 00:06 35.41669 -116.09375 34241 ft 376 kts 46°
2026-04-21 00:06 35.43472 -116.07050 34410 ft 376 kts 46°
2026-04-21 00:06 35.45274 -116.04728 34582 ft 375 kts 46°
2026-04-21 00:07 35.47073 -116.02408 34753 ft 375 kts 46°
2026-04-21 00:07 35.48868 -116.00094 34923 ft 374 kts 46°
2026-04-21 00:07 35.50665 -115.97776 35095 ft 374 kts 46°
2026-04-21 00:07 35.52457 -115.95465 35272 ft 374 kts 46°
2026-04-21 00:08 35.54247 -115.93157 35436 ft 373 kts 46°
2026-04-21 00:08 35.56036 -115.90849 35607 ft 373 kts 46°
2026-04-21 00:08 35.57820 -115.88549 35781 ft 372 kts 46°
2026-04-21 00:08 35.59607 -115.86243 35949 ft 371 kts 46°
2026-04-21 00:09 35.61387 -115.83946 36116 ft 370 kts 46°
2026-04-21 00:09 35.63164 -115.81653 36290 ft 370 kts 46°
2026-04-21 00:09 35.64936 -115.79365 36460 ft 369 kts 46°
2026-04-21 00:09 35.66701 -115.77087 36630 ft 368 kts 46°
2026-04-21 00:10 35.68465 -115.74810 36799 ft 367 kts 46°
2026-04-21 00:10 35.70226 -115.72537 36968 ft 366 kts 46°
2026-04-21 00:10 35.71981 -115.70270 37138 ft 365 kts 46°
2026-04-21 00:10 35.73733 -115.68009 37307 ft 364 kts 46°
2026-04-21 00:11 35.75453 -115.65788 37475 ft 363 kts 46°
2026-04-21 00:11 35.77196 -115.63536 37645 ft 362 kts 46°
2026-04-21 00:11 35.78935 -115.61291 37815 ft 361 kts 46°
2026-04-21 00:11 35.80669 -115.59053 37985 ft 360 kts 46°
2026-04-21 00:12 35.82396 -115.56823 38156 ft 359 kts 46°
2026-04-21 00:12 35.84118 -115.54597 38321 ft 359 kts 46°
2026-04-21 00:12 35.85840 -115.52376 38487 ft 357 kts 46°
2026-04-21 00:12 35.87557 -115.50162 38655 ft 356 kts 46°
2026-04-21 00:13 35.89269 -115.47958 38821 ft 355 kts 46°
2026-04-21 00:13 35.90972 -115.45767 38988 ft 353 kts 46°
2026-04-21 00:13 35.92670 -115.43582 39155 ft 352 kts 46°
2026-04-21 00:13 35.94361 -115.41406 39321 ft 351 kts 46°
2026-04-21 00:14 35.96048 -115.39236 39490 ft 349 kts 46°
2026-04-21 00:14 35.97727 -115.37078 39656 ft 348 kts 46°
2026-04-21 00:14 35.99399 -115.34931 39828 ft 347 kts 46°
2026-04-21 00:14 36.01072 -115.32784 39993 ft 346 kts 46°
2026-04-21 00:15 36.02737 -115.30646 40161 ft 344 kts 46°
2026-04-21 00:15 36.04396 -115.28518 40327 ft 343 kts 46°
2026-04-21 00:15 36.06052 -115.26397 40496 ft 342 kts 46°
2026-04-21 00:15 36.07703 -115.24283 40663 ft 341 kts 46°
2026-04-21 00:16 36.09347 -115.22177 40831 ft 340 kts 46°
2026-04-21 00:16 36.12638 -115.17966 40923 ft 346 kts 46°
2026-04-21 00:17 36.16014 -115.13639 40957 ft 353 kts 46°
2026-04-21 00:17 36.19447 -115.09224 40965 ft 359 kts 46°
2026-04-21 00:18 36.22351 -115.05484 40965 ft 365 kts 46°
2026-04-21 00:18 36.25895 -115.00915 40964 ft 371 kts 46°
2026-04-21 00:19 36.29489 -114.96267 40965 ft 375 kts 46°
2026-04-21 00:19 36.33122 -114.91565 40964 ft 379 kts 46°
2026-04-21 00:20 36.36785 -114.86817 40967 ft 382 kts 46°
2026-04-21 00:20 36.40474 -114.82027 40969 ft 385 kts 46°
2026-04-21 00:21 36.44186 -114.77206 40969 ft 387 kts 46°
2026-04-21 00:21 36.47916 -114.72362 40966 ft 389 kts 46°
2026-04-21 00:22 36.51663 -114.67496 40965 ft 390 kts 46°
2026-04-21 00:22 36.55405 -114.62640 40966 ft 392 kts 46°
2026-04-21 00:23 36.59246 -114.57822 40966 ft 392 kts 44°
2026-04-21 00:23 36.63159 -114.53066 40949 ft 393 kts 44°
2026-04-21 00:24 36.67147 -114.48398 40950 ft 393 kts 41°
2026-04-21 00:24 36.71246 -114.43878 40950 ft 393 kts 41°
2026-04-21 00:25 36.75362 -114.39377 40948 ft 393 kts 41°
2026-04-21 00:25 36.79472 -114.34880 40949 ft 393 kts 41°
2026-04-21 00:26 36.83560 -114.30404 40949 ft 393 kts 41°
2026-04-21 00:26 36.87671 -114.25904 40947 ft 393 kts 41°
2026-04-21 00:27 36.91780 -114.21406 40950 ft 393 kts 41°
2026-04-21 00:27 36.95889 -114.16907 40949 ft 392 kts 41°
2026-04-21 00:28 36.99999 -114.12408 40948 ft 392 kts 41°
2026-04-21 00:28 37.04054 -114.07967 40948 ft 392 kts 41°
2026-04-21 00:29 37.08164 -114.03467 40949 ft 392 kts 41°
2026-04-21 00:29 37.12238 -113.99005 40949 ft 392 kts 41°